Lorain / Elyria, OH

6:42 AM EDT on April 25, 2018 (GMT -0400)
Lorain County Regional

Weather History for KLPR - October, 2011

Change the Weather History Date:

Sunday, October 23, 2011

  Actual Average (KCLE) Record (KCLE)
Temperature  
Mean Temperature 50 °F -  
Max Temperature 66 °F 60 °F 80 °F (1963)
Min Temperature 37 °F 40 °F 25 °F (1969)
Degree Days  
Heating Degree Days 14    
Moisture  
Dew Point 38 °F    
Average Humidity 64    
Maximum Humidity 89    
Minimum Humidity 40    
Precipitation  
Precipitation 0.00 in - - ()
Sea Level Pressure  
Sea Level Pressure 30.04 in    
Wind  
Wind Speed 4 mph (SSW)    
Max Wind Speed 14 mph    
Max Gust Speed 29 mph    
Visibility 10 miles    
Events      
Averages and records for this station are not official NWS values.
T = Trace of Precipitation, MM = Missing Value Source: NWS Daily Summary

Daily Weather History Graph

Daily Weather History Graph

Search for Another Location

Airport or City:

Astronomy

Oct. 23, 2011 Rise Set
Actual Time 7:49 AM EDT 6:36 PM EDT
Civil Twilight 7:21 AM EDT 7:04 PM EDT
Nautical Twilight 6:48 AM EDT 7:36 PM EDT
Astronomical Twilight 6:16 AM EDT 8:08 PM EDT
Moon 3:52 AM EDT (10/23) 4:28 PM EDT (10/23)
Length of Visible Light 11h 43m
Length of Day
10h 46m
Waning Crescent, 14% of the Moon is Illuminated
Oct 23
Waning Crescent
Oct 26
New
Nov 2
First Quarter
Nov 10
Full
Nov 18
Last Quarter

Hourly Weather History & Observations

Time (EDT) Temp. Windchill Dew Point Humidity Pressure Visibility Wind Dir Wind Speed Gust Speed Precip Events Conditions
12:53 AM 42.1 °F - 36.0 °F 79% 30.09 in - Calm Calm - N/A   Unknown
1:53 AM 39.9 °F - 35.1 °F 83% 30.09 in 10.0 mi Calm Calm - N/A   Clear
2:53 AM 39.0 °F - 35.1 °F 86% 30.08 in 10.0 mi Calm Calm - N/A   Clear
3:53 AM 39.0 °F 36.8 °F 36.0 °F 89% 30.06 in 10.0 mi South 3.5 mph - N/A   Clear
4:53 AM 37.9 °F 35.5 °F 35.1 °F 89% 30.07 in 10.0 mi SSW 3.5 mph - N/A   Clear
5:53 AM 39.0 °F 36.8 °F 35.1 °F 86% 30.08 in 10.0 mi SSW 3.5 mph - N/A   Unknown
6:53 AM 37.9 °F - 34.0 °F 86% 30.08 in 9.0 mi Calm Calm - N/A   Scattered Clouds
7:53 AM 37.9 °F 35.5 °F 35.1 °F 89% 30.09 in 9.0 mi SSW 3.5 mph - N/A   Clear
8:53 AM 41.0 °F 38.0 °F 37.0 °F 86% 30.10 in 9.0 mi South 4.6 mph - N/A   Clear
10:53 AM 53.1 °F - 41.0 °F 64% 30.09 in 10.0 mi SSW 6.9 mph - N/A   Clear
11:53 AM 59.0 °F - 39.9 °F 49% 30.08 in 10.0 mi SSW 6.9 mph - N/A   Partly Cloudy
12:53 PM 63.0 °F - 39.0 °F 41% 30.06 in 10.0 mi SW 13.8 mph - N/A   Mostly Cloudy
1:53 PM 64.9 °F - 39.9 °F 40% 30.03 in 10.0 mi SSW 11.5 mph 28.8 mph N/A   Mostly Cloudy
2:53 PM 64.9 °F - 39.9 °F 40% 30.01 in 10.0 mi South 11.5 mph 17.3 mph N/A   Clear
3:53 PM 64.9 °F - 39.9 °F 40% 30.00 in 10.0 mi SW 12.7 mph 18.4 mph N/A   Partly Cloudy
4:53 PM 63.0 °F - 39.0 °F 41% 29.99 in 10.0 mi SW 9.2 mph 19.6 mph N/A   Mostly Cloudy
5:53 PM 61.0 °F - 41.0 °F 48% 29.99 in 10.0 mi SSW 9.2 mph - N/A   Mostly Cloudy
6:53 PM 57.9 °F - 39.0 °F 49% 29.99 in 10.0 mi South 10.4 mph - N/A   Clear
7:53 PM 55.9 °F - 39.0 °F 53% 30.01 in 10.0 mi SSW 8.1 mph - N/A   Partly Cloudy
8:53 PM 54.0 °F - 39.9 °F 59% 30.02 in 10.0 mi SSW 6.9 mph - N/A   Clear
9:53 PM 55.0 °F - 39.9 °F 57% 30.01 in 10.0 mi SSW 10.4 mph - N/A   Clear
10:53 PM 54.0 °F - 39.9 °F 59% 30.00 in 10.0 mi SSW 8.1 mph - N/A   Clear
11:53 PM 53.1 °F - 39.9 °F 61% 29.99 in 10.0 mi SSW 6.9 mph - N/A   Clear